◎C/2007 T6の軌道と予報位置



  上尾の門田健一氏から10月20日の観測が報告されました.氏のCCD全光度は,

17.3等でした.



    C/2007 T6 (Catalina)

T 2007 Aug. 30.98203 TT                                 Nakano

q   2.4189099            (2000.0)            P               Q

                   Peri.  339.44956     +0.07595845     -0.93053392

                   Node   104.80454     +0.95875396     -0.03053190

e   1.0            Incl.   21.74907     +0.27389992     +0.36493071

From 21 observations 2007 Oct. 13-20.

Residuals in seconds of arc 

2007/                     071014 H06  0.3+  0.5-    071014 673  0.0   1.1-  

071013 703  0.3+  1.5+    071014 H06  0.6+  0.9-    071014 673  0.1+  0.9-  

071013 703  0.3+  1.5+    071014 G96  0.0   0.1-    071015 673  0.6-  1.2-  

071013 703  0.1-  1.1+    071014 G96  0.3-  0.3-    071015 673  0.0   1.6-  

071013 703  0.3+  1.5+    071014 G96  0.0   0.4-    071020 349  0.1-  0.6+  

071013 703  0.7-  1.6+    071014 G96  0.1-  0.5-    071020 349  0.2+  1.1+  

071013 703  0.5-  1.3+    071014 673  0.0   1.0-                            

071014 H06  0.3+  0.5-    071014 673  0.1-  1.2-                            

 

Date/        TT  R.A.(2000) Decl.     Delta   r     Daily motion  Mag.  Moon Age

              h    h  m       。  ,                      ,  / PA 。  m1      。

2007 Oct. 20 18  08 33.48  +17 58.1   2.442  2.483    21.7 /  83  16.9  172  .64

          21 18  08 34.99  +18 00.6   2.433  2.485    21.5 /  83  16.9  160  .74

          22 18  08 36.49  +18 03.1   2.423  2.488    21.3 /  83  16.9  146  .83

          23 18  08 37.97  +18 05.8   2.414  2.491    21.1 /  83  16.9  132  .91

          24 18  08 39.44  +18 08.5   2.405  2.493    20.9 /  82  16.9  117  .97

          25 18  08 40.90  +18 11.2   2.396  2.496    20.7 /  82  16.9  103 1.00

          26 18  08 42.34  +18 14.1   2.387  2.499    20.5 /  82  16.9   88  .99

          27 18  08 43.76  +18 17.0   2.377  2.501    20.3 /  81  16.9   73  .96

          28 18  08 45.17  +18 20.1   2.368  2.504    20.1 /  81  16.9   58  .90

          29 18  08 46.57  +18 23.2   2.359  2.507    19.9 /  81  16.9   44  .82

          30 18  08 47.94  +18 26.4   2.350  2.510    19.6 /  80  16.9   30  .72

          31 18  08 49.31  +18 29.7   2.341  2.513    19.4 /  80  16.8   16  .62

     Nov.  1 18  08 50.65  +18 33.2   2.332  2.516    19.2 /  79  16.8    3  .51

           2 18  08 51.98  +18 36.7   2.323  2.519    19.0 /  79  16.8   10  .41

           3 18  08 53.29  +18 40.3   2.314  2.522    18.7 /  78  16.8   22  .31

           4 18  08 54.58  +18 44.1   2.305  2.525    18.5 /  78  16.8   34  .23

           5 18  08 55.86  +18 47.9   2.296  2.528    18.3 /  77  16.8   46  .15

           6 18  08 57.11  +18 51.9   2.287  2.531    18.1 /  77  16.8   58  .09

           7 18  08 58.35  +18 56.0   2.278  2.535    17.8 /  76  16.8   69  .04

           8 18  08 59.58  +19 00.2   2.269  2.538    17.6 /  76  16.8   81  .01

           9 18  09 00.78  +19 04.5   2.261  2.541    17.4 /  75  16.8   93  .00

          10 18  09 01.96  +19 09.0   2.252  2.545    17.1 /  74  16.8  104  .01

          11 18  09 03.12  +19 13.5   2.243  2.548    16.9 /  74  16.8  116  .03

          12 18  09 04.27  +19 18.3   2.234  2.552    16.6 /  73  16.8  128  .07

          13 18  09 05.39  +19 23.1   2.226  2.555    16.4 /  72  16.8  139  .13

          14 18  09 06.50  +19 28.1   2.217  2.559    16.2 /  71  16.8  151  .20

          15 18  09 07.58  +19 33.2   2.209  2.562    15.9 /  71  16.8  163  .28

          16 18  09 08.65  +19 38.5   2.200  2.566    15.7 /  70  16.8  176  .38

          17 18  09 09.69  +19 43.9   2.192  2.569    15.5 /  69  16.8  171  .48

          18 18  09 10.72  +19 49.5   2.183  2.573    15.2 /  68  16.8  158  .59

          19 18  09 11.72  +19 55.2   2.175  2.577    15.0 /  67  16.8  144  .69

          20 18  09 12.70  +20 01.0   2.167  2.581    14.8 /  66  16.8  130  .79

          21 18  09 13.66  +20 07.0   2.159  2.584    14.6 /  65  16.8  116  .88

          22 18  09 14.60  +20 13.1   2.151  2.588    14.3 /  64  16.8  101  .95

          23 18  09 15.51  +20 19.4   2.143  2.592    14.1 /  63  16.8   86  .99

          24 18  09 16.41  +20 25.9   2.135  2.596    13.9 /  62  16.8   71 1.00

          25 18  09 17.28  +20 32.5   2.127  2.600    13.7 /  60  16.8   56  .98

          26 18  09 18.13  +20 39.2   2.119  2.604    13.5 /  59  16.8   41  .93

          27 18  09 18.96  +20 46.2   2.112  2.608    13.3 /  58  16.8   27  .86

          28 18  09 19.76  +20 53.2   2.104  2.612    13.1 /  56  16.8   14  .78

          29 18  09 20.54  +21 00.5   2.097  2.616    12.9 /  55  16.8    4  .68

          30 18  09 21.30  +21 07.8   2.089  2.620    12.7 /  54  16.8   14  .58

     Dec.  1 18  09 22.03  +21 15.4   2.082  2.625    12.6 /  52  16.8   26  .48

NAKANO

         **** Don't distribute anyone except personal use only ****

                (C) Copyright 2007 OAA/ComputingSection

write mail from CFAD0::NAKANO on 2007-10-22 07:37:55(JST).

    C/2007 T6 (Catalina)

T 2007 Aug. 24.94103 TT                                 Nakano

q   2.3834356            (2000.0)            P               Q

                   Peri.  336.86358     +0.12096202     -0.92734067

                   Node   104.66334     +0.95834637     +0.01611306

e   1.0            Incl.   21.47231     +0.25872847     +0.37387116

From 19 observations 2007 Oct. 13-15.



NAKANO

         **** Don't distribute anyone except personal use only ****

                (C) Copyright 2007 OAA/ComputingSection

write mail from CFAD0::NAKANO on 2007-10-18 07:23:28(JST).

 



戻ります。